Date String (YYYY-MM-DD hh:mm:ss) UTC,Instrument flags,absolute air pressure of the measurement (hPa),sample flow rate (lpm),inlet stack bypass flow (lpm),air temperature of the measurement (°C),ambient temperature measured by the external sensor (°C),aerosol sample conditioner tube jacket temperature (°C),OPC LED temperature (°C),internal box temperature (°C),relative humidity of the measurement (%),span deviation,mass concentration of particles derived from Lorenz-Mie calculation of OPC scattering (μg/m³),mass concentration of particles derived from Lorenz-Mie calculation of OPC scattering (μg/m³),mass concentration of particles derived from Lorenz-Mie calculation of OPC scattering (μg/m³)
DateTimeUTC,F1_M11,P_M11,Q1_M11,Q2_M11,T1_M11,T2_M11,T3_M11,T4_M11,T5_M11,U1_M11,ZSPAN_M11,X0_M11,X2_M11,X1_M11
2023-08-10 05:00:00,SystemResetWarning,0830.4,5.00,000.00,029.2,027.1,000.0,037.8,030.8,25.5,0000.0,0013.18,0005.67,0004.91
2023-08-10 05:01:00,SystemResetWarning,0830.4,5.00,000.00,029.2,027.4,000.0,037.8,030.9,25.5,0000.0,0012.24,0005.61,0004.90
2023-08-10 05:02:00,SystemResetWarning,0830.4,4.99,000.00,029.3,027.6,000.0,037.8,030.9,25.6,0000.0,0011.37,0005.57,0004.91
2023-08-10 05:03:00,SystemResetWarning,0830.4,4.99,000.00,029.3,027.8,000.0,037.8,031.0,25.5,0000.0,0011.10,0005.56,0004.90
2023-08-10 05:04:00,SystemResetWarning,0830.4,5.00,000.00,029.3,027.9,000.0,037.8,031.0,25.5,0000.0,0010.78,0005.54,0004.90
2023-08-10 05:05:00,SystemResetWarning,0830.4,5.01,000.00,029.3,028.0,000.0,037.8,031.1,25.5,0000.0,0011.32,0005.53,0004.90
2023-08-10 05:06:00,SystemResetWarning,0830.4,5.00,000.00,029.4,028.1,000.0,037.9,031.1,25.5,0000.0,0011.46,0005.61,0004.90
2023-08-10 05:07:00,SystemResetWarning,0830.4,5.00,000.00,029.4,028.2,000.0,037.9,031.1,25.5,0000.0,0011.53,0005.65,0004.91
2023-08-10 05:08:00,SystemResetWarning,0830.4,5.01,000.00,029.4,028.3,000.0,037.9,031.2,25.6,0000.0,0011.19,0005.66,0004.91
2023-08-10 05:09:00,SystemResetWarning,0830.4,5.00,000.00,029.5,028.3,000.0,037.9,031.2,25.6,0000.0,0011.60,0005.65,0004.90
2023-08-10 05:10:00,SystemResetWarning,0830.4,5.00,000.00,029.5,028.4,000.0,038.0,031.2,25.6,0000.0,0012.47,0005.68,0004.90
2023-08-10 05:11:00,SystemResetWarning,0830.4,4.99,000.00,029.5,027.6,000.0,037.9,031.2,25.5,0000.0,0012.11,0005.74,0004.91
2023-08-10 05:12:00,SystemResetWarning,0830.4,5.00,000.00,029.5,025.7,000.0,037.8,030.9,25.5,0000.0,0012.20,0005.79,0004.92
2023-08-10 05:13:00,SystemResetWarning,0830.3,5.01,000.00,029.4,025.2,000.0,037.7,030.7,25.5,0000.0,0012.30,0005.79,0004.91
2023-08-10 05:14:00,SystemResetWarning,0830.3,5.01,000.00,029.3,025.4,000.0,037.7,030.4,25.6,0000.0,0012.30,0005.81,0004.92
2023-08-10 05:15:00,SystemResetWarning,0830.3,5.00,000.00,029.2,025.8,000.0,037.7,030.5,25.7,0000.0,0012.15,0005.83,0004.92
2023-08-10 05:16:00,SystemResetWarning,0830.3,5.00,000.00,029.2,026.2,000.0,037.8,030.6,25.7,0000.0,0011.44,0005.80,0004.92
2023-08-10 05:17:00,SystemResetWarning,0830.3,4.99,000.00,029.2,026.6,000.0,037.8,030.7,25.7,0000.0,0011.38,0005.72,0004.92
2023-08-10 05:18:00,SystemResetWarning,0830.3,5.00,000.00,029.2,026.9,000.0,037.8,030.8,25.7,0000.0,0012.04,0005.69,0004.93
2023-08-10 05:19:00,SystemResetWarning,0830.3,5.00,000.00,029.2,027.2,000.0,037.8,030.8,25.7,0000.0,0012.23,0005.71,0004.93
2023-08-10 05:20:00,SystemResetWarning,0830.3,5.01,000.00,029.2,027.4,000.0,037.8,030.9,25.7,0000.0,0011.87,0005.72,0004.94
2023-08-10 05:21:00,SystemResetWarning,0830.3,5.00,000.00,029.3,027.6,000.0,037.8,030.9,25.7,0000.0,0011.07,0005.71,0004.95
2023-08-10 05:22:00,SystemResetWarning,0830.3,5.00,000.00,029.3,027.8,000.0,037.8,031.0,25.6,0000.0,0011.47,0005.73,0004.96
2023-08-10 05:23:00,SystemResetWarning,0830.3,5.00,000.00,029.3,027.9,000.0,037.8,031.0,25.6,0000.0,0012.20,0005.73,0004.96
2023-08-10 05:24:00,SystemResetWarning,0830.3,5.00,000.00,029.3,028.0,000.0,037.9,031.0,25.5,0000.0,0012.59,0005.75,0004.97
2023-08-10 05:25:00,SystemResetWarning,0830.3,5.00,000.00,029.4,028.1,000.0,037.9,031.1,25.4,0000.0,0013.72,0005.73,0004.97
2023-08-10 05:26:00,SystemResetWarning,0830.3,5.00,000.00,029.4,028.1,000.0,037.9,031.1,25.4,0000.0,0013.95,0005.74,0004.98
2023-08-10 05:27:00,SystemResetWarning,0830.3,5.01,000.00,029.4,028.2,000.0,037.9,031.1,25.3,0000.0,0014.50,0005.81,0005.00
2023-08-10 05:28:00,SystemResetWarning,0830.2,5.01,000.00,029.5,028.3,000.0,037.9,031.2,25.2,0000.0,0015.32,0005.87,0005.01
2023-08-10 05:29:00,SystemResetWarning,0830.2,5.01,000.00,029.5,028.3,000.0,038.0,031.2,25.2,0000.0,0015.74,0005.89,0005.02
2023-08-10 05:30:00,SystemResetWarning,0830.2,5.00,000.00,029.5,028.4,000.0,038.0,031.2,25.1,0000.0,0016.71,0005.91,0005.03
2023-08-10 05:31:00,SystemResetWarning,0830.2,5.00,000.00,029.5,028.4,000.0,038.0,031.3,25.1,0000.0,0016.85,0005.92,0005.03
2023-08-10 05:32:00,SystemResetWarning,0830.2,4.99,000.00,029.6,028.1,000.0,038.0,031.2,25.0,0000.0,0017.24,0005.94,0005.03
2023-08-10 05:33:00,SystemResetWarning,0830.2,4.99,000.00,029.5,026.2,000.0,037.9,031.0,25.0,0000.0,0016.64,0005.88,0005.03
2023-08-10 05:34:00,SystemResetWarning,0830.3,5.02,000.00,029.5,025.2,000.0,037.8,030.7,25.1,0000.0,0016.42,0005.87,0005.03
2023-08-10 05:35:00,SystemResetWarning,0830.3,5.00,000.00,029.4,025.3,000.0,037.8,030.5,25.2,0000.0,0016.46,0005.87,0005.04
2023-08-10 05:36:00,SystemResetWarning,0830.2,5.00,000.00,029.3,025.6,000.0,037.8,030.5,25.3,0000.0,0015.24,0005.86,0005.04
2023-08-10 05:37:00,SystemResetWarning,0830.2,5.00,000.00,029.2,026.0,000.0,037.8,030.6,25.4,0000.0,0014.78,0005.83,0005.04
2023-08-10 05:38:00,SystemResetWarning,0830.2,4.99,000.00,029.2,026.4,000.0,037.8,030.7,25.4,0000.0,0014.23,0005.80,0005.04
2023-08-10 05:39:00,SystemResetWarning,0830.1,5.00,000.00,029.2,026.8,000.0,037.8,030.8,25.4,0000.0,0013.31,0005.76,0005.04
2023-08-10 05:40:00,SystemResetWarning,0830.1,5.00,000.00,029.2,027.1,000.0,037.8,030.8,25.4,0000.0,0012.44,0005.78,0005.04
2023-08-10 05:41:00,SystemResetWarning,0830.1,5.00,000.00,029.2,027.3,000.0,037.8,030.9,25.4,0000.0,0011.48,0005.74,0005.02
2023-08-10 05:42:00,SystemResetWarning,0830.1,4.99,000.00,029.3,027.5,000.0,037.8,030.9,25.3,0000.0,0012.01,0005.75,0005.02
2023-08-10 05:43:00,SystemResetWarning,0830.1,5.00,000.00,029.3,027.7,000.0,037.9,031.0,25.3,0000.0,0011.92,0005.76,0005.02
2023-08-10 05:44:00,SystemResetWarning,0830.1,5.01,000.00,029.3,027.8,000.0,037.9,031.0,25.2,0000.0,0012.14,0005.80,0005.01
2023-08-10 05:45:00,SystemResetWarning,0830.1,5.01,000.00,029.3,027.9,000.0,037.9,031.0,25.2,0000.0,0012.50,0005.82,0005.00
2023-08-10 05:46:00,SystemResetWarning,0830.0,5.01,000.00,029.4,028.0,000.0,037.9,031.1,25.2,0000.0,0012.06,0005.81,0004.98
2023-08-10 05:47:00,SystemResetWarning,0830.1,5.01,000.00,029.4,028.1,000.0,037.9,031.1,25.1,0000.0,0012.80,0005.80,0004.97
2023-08-10 05:48:00,SystemResetWarning,0830.1,5.00,000.00,029.4,028.2,000.0,037.9,031.1,24.9,0000.0,0013.58,0005.80,0004.95
2023-08-10 05:49:00,SystemResetWarning,0830.0,4.99,000.00,029.5,028.2,000.0,038.0,031.2,24.8,0000.0,0014.65,0005.80,0004.94
2023-08-10 05:50:00,SystemResetWarning,0830.1,5.00,000.00,029.5,028.3,000.0,038.0,031.2,24.8,0000.0,0014.98,0005.80,0004.93
2023-08-10 05:51:00,SystemResetWarning,0830.0,5.00,000.00,029.5,028.4,000.0,038.0,031.2,24.7,0000.0,0015.00,0005.78,0004.93
2023-08-10 05:52:00,SystemResetWarning,0830.0,5.00,000.00,029.5,028.4,000.0,038.0,031.3,24.7,0000.0,0014.87,0005.75,0004.92
2023-08-10 05:53:00,SystemResetWarning,0830.0,5.00,000.00,029.6,028.4,000.0,038.1,031.3,24.6,0000.0,0014.06,0005.75,0004.93
2023-08-10 05:54:00,SystemResetWarning,0830.0,5.00,000.00,029.6,028.4,000.0,038.1,031.3,24.6,0000.0,0013.65,0005.73,0004.92
2023-08-10 05:55:00,SystemResetWarning,0830.0,4.98,000.00,029.6,027.0,000.0,038.0,031.1,24.5,0000.0,0013.85,0005.74,0004.93
2023-08-10 05:56:00,SystemResetWarning,0830.0,5.00,000.00,029.5,025.5,000.0,037.9,030.9,24.6,0000.0,0013.10,0005.73,0004.93
2023-08-10 05:57:00,SystemResetWarning,0829.9,5.01,000.00,029.5,025.2,000.0,037.8,030.6,24.7,0000.0,0012.95,0005.74,0004.93
2023-08-10 05:58:00,SystemResetWarning,0829.9,5.00,000.00,029.3,025.5,000.0,037.8,030.5,24.9,0000.0,0012.59,0005.78,0004.94
2023-08-10 05:59:00,SystemResetWarning,0829.9,5.00,000.00,029.3,025.9,000.0,037.9,030.5,24.8,0000.0,0011.69,0005.78,0004.95
